Total_Precipitation_Accumulation
3.37 3.83 4.77 4.51 3.64 3.32 3.20 3.09 2.95 2.85 2.95 2.90 2.89 2.78 2.77 2.91 3.07 3.27 3.52 3.77 3.85 3.80 3.73 3.93 4.16 4.29 4.08 3.98 3.76 3.55 3.44 3.16 3.15 3.09 2.94 2.85 2.63 2.68 3.10 3.35 3.47 2.75 2.68
2.76 3.23 4.20 4.04 3.43 3.13 3.03 2.93 2.90 2.99 3.03 2.99 3.12 2.99 3.05 3.18 3.26 3.37 3.66 3.73 3.59 3.44 3.47 3.67 3.87 3.86 3.73 3.54 3.57 3.56 3.56 3.48 3.41 3.61 3.45 3.08 2.84 2.84 3.09 3.20 3.41 2.70 2.77
2.28 2.74 3.44 3.66 3.18 2.89 2.86 2.75 2.76 2.93 2.95 3.00 3.07 3.12 3.20 3.40 3.52 3.68 3.60 3.37 3.30 3.26 3.15 3.32 3.49 3.42 3.32 3.18 3.42 3.66 3.63 3.71 3.81 4.13 4.36 3.16 2.63 2.95 2.89 2.86 2.79 2.66 2.69
1.97 2.29 2.90 3.48 3.16 2.81 2.81 2.79 2.88 2.99 2.97 3.00 3.15 3.26 3.37 3.53 3.65 3.57 3.35 3.23 3.23 3.16 3.07 3.19 3.45 3.36 3.09 3.09 3.33 3.62 3.68 3.70 3.86 4.35 4.19 3.12 2.47 2.71 2.68 2.64 2.55 2.64 2.65
1.91 2.20 3.01 3.44 3.27 3.04 2.92 2.99 2.90 2.91 2.99 3.17 3.43 3.51 3.66 3.64 3.66 3.48 3.26 3.17 3.01 2.83 2.90 3.10 3.34 3.20 2.98 3.03 3.18 3.43 3.77 4.01 4.20 4.00 3.16 3.25 2.99 2.97 2.74 2.66 2.63 2.58 2.44
1.94 2.25 2.87 3.23 3.18 3.08 2.89 2.89 3.03 3.26 3.42 3.54 3.61 3.59 3.64 3.60 3.63 3.42 3.07 2.95 2.73 2.53 2.53 2.76 3.02 3.08 2.95 2.97 2.99 3.23 3.75 4.32 4.17 3.25 2.92 3.01 3.09 3.12 2.98 2.89 2.78 2.61 2.45
1.78 2.12 2.46 3.02 3.26 3.17 3.04 3.11 3.21 3.28 3.37 3.44 3.40 3.20 3.10 3.14 3.24 3.09 2.84 2.73 2.56 2.30 2.25 2.68 2.96 2.97 2.77 2.75 2.81 2.99 3.59 4.07 3.41 2.81 2.80 2.83 2.92 2.99 3.14 3.30 3.26 2.95 2.64
1.74 1.99 2.26 2.83 3.16 3.28 3.25 3.37 3.40 3.33 3.39 3.34 3.15 2.96 2.80 2.67 2.84 2.78 2.60 2.66 2.56 2.37 2.50 2.85 2.93 2.76 2.67 2.75 2.90 3.01 3.33 3.35 2.67 2.47 2.39 2.45 2.52 2.75 3.06 3.33 3.43 3.19 2.98
1.84 1.95 2.35 2.76 2.88 2.99 3.42 3.54 3.52 3.46 3.50 3.38 3.20 2.92 2.69 2.54 2.54 2.48 2.51 2.64 2.59 2.61 2.77 3.00 3.01 2.88 2.78 2.96 3.08 3.19 3.35 3.43 2.87 2.68 2.31 2.28 2.34 2.81 3.47 3.52 3.44 3.28 3.14
2.19 2.10 2.27 2.51 2.52 2.66 3.05 3.42 3.46 3.32 3.25 3.25 3.29 3.01 2.94 2.82 2.61 2.52 2.48 2.63 2.75 2.83 3.08 3.20 3.18 3.10 2.96 3.10 3.40 3.52 3.59 3.46 3.10 2.79 2.47 2.19 2.37 2.90 3.54 3.77 3.72 3.62 3.34
2.34 2.36 2.32 2.25 2.29 2.58 2.74 3.05 3.29 3.40 3.42 3.45 3.57 3.33 3.19 3.15 2.81 2.79 2.75 3.06 3.23 3.13 3.41 3.62 3.67 3.44 3.39 3.68 3.81 3.83 3.69 3.49 3.33 2.89 2.54 2.20 2.38 2.83 3.39 3.68 3.71 3.76 3.56
2.54 2.44 2.49 2.43 2.33 2.43 2.59 2.91 3.23 3.01 3.20 3.51 3.63 3.44 3.26 3.38 3.38 2.78 3.10 3.72 3.92 3.83 3.98 4.19 4.18 3.65 3.39 3.49 4.04 4.32 3.53 3.18 3.12 2.83 2.65 2.46 2.63 2.96 3.35 3.40 3.50 3.55 3.32
2.84 2.70 2.71 2.55 2.33 2.22 2.52 2.52 2.78 2.95 3.25 3.47 3.31 3.20 3.16 2.97 2.92 2.90 3.35 4.01 4.13 4.01 4.11 4.33 4.11 3.52 3.64 3.95 3.98 3.88 3.22 3.24 3.16 2.95 2.84 2.87 2.96 3.32 3.80 3.62 3.48 3.56 3.48
2.89 2.87 3.03 2.76 2.70 2.75 2.60 2.34 2.28 2.36 2.65 3.01 3.26 3.15 3.16 3.41 3.45 3.40 3.65 3.74 3.93 4.09 4.49 4.22 4.25 4.06 4.05 3.93 3.82 3.75 3.42 3.50 3.39 3.42 3.20 2.94 3.03 3.48 4.13 4.19 3.77 3.54 3.51
2.85 2.94 3.13 3.04 2.89 2.94 2.79 2.67 2.44 2.52 2.53 2.67 2.91 3.15 3.17 3.55 3.88 3.86 3.81 3.75 3.67 3.60 3.83 4.02 3.92 4.24 4.44 4.02 3.59 3.37 3.36 3.48 3.42 3.44 3.21 3.01 2.98 3.25 3.81 4.20 4.15 3.98 3.76
3.10 3.21 3.11 3.12 3.09 3.12 3.20 3.22 3.09 2.74 2.82 2.78 2.88 2.96 3.10 3.55 4.02 4.13 3.96 3.78 3.54 3.42 3.51 3.70 3.85 4.34 4.37 4.18 3.79 3.50 3.31 3.25 3.10 3.04 3.14 3.32 3.18 3.12 3.34 3.86 4.31 4.37 4.29
3.46 3.58 3.62 3.55 3.73 3.75 3.67 3.57 3.30 3.08 2.90 2.94 3.19 3.31 3.23 3.42 3.83 3.81 3.58 3.42 3.37 3.45 3.67 3.66 3.87 4.05 3.79 3.88 3.75 3.53 3.24 2.94 2.77 2.77 2.96 3.22 3.15 3.15 3.39 3.67 4.01 4.28 4.53
3.61 3.91 4.23 4.05 4.13 4.04 4.08 4.04 3.70 3.41 3.23 3.11 3.17 3.30 3.12 3.11 3.31 3.64 3.36 3.21 3.50 3.54 3.69 4.01 4.18 4.06 4.10 4.18 3.90 3.48 3.16 2.98 2.61 2.54 2.59 2.77 3.02 2.79 3.19 3.55 3.77 3.98 4.47
3.92 4.35 4.84 4.78 4.57 4.30 4.35 4.33 4.10 3.90 3.58 3.19 3.07 3.06 2.99 2.98 3.13 3.47 3.45 3.56 3.62 3.75 3.83 3.65 4.13 4.19 4.15 4.22 3.72 3.46 3.06 2.75 2.60 2.42 2.34 2.34 2.60 2.86 3.00 3.10 3.41 3.72 4.29
4.38 4.86 4.88 4.89 5.08 4.95 4.78 4.66 4.34 3.83 3.39 3.22 3.17 3.04 2.96 3.06 3.15 3.57 3.47 3.50 3.55 3.79 3.92 3.87 4.05 4.11 3.87 3.88 3.46 3.41 2.98 2.48 2.39 2.34 2.14 2.16 2.32 2.42 2.82 3.21 3.61 3.36 3.73
4.46 4.91 5.14 5.25 5.16 5.00 4.64 4.35 4.11 3.87 3.65 3.38 3.15 3.05 3.02 2.96 3.19 3.70 3.44 3.74 3.66 3.71 3.78 3.82 3.99 3.92 3.65 3.83 3.94 3.52 2.90 2.42 2.41 2.16 2.11 2.19 2.22 2.27 2.76 3.35 3.65 3.58 3.36
4.07 4.56 4.91 5.13 5.04 4.66 4.33 4.17 4.10 4.08 3.69 3.40 3.36 3.52 3.32 3.31 3.36 3.42 3.70 3.67 3.77 3.93 3.90 3.85 3.99 3.78 3.42 3.71 4.13 4.24 3.50 3.05 2.48 1.90 2.06 2.25 2.49 2.62 2.76 2.99 3.19 3.54 3.59
3.62 3.95 4.06 4.27 4.26 4.10 4.15 4.18 4.18 4.23 3.84 3.76 3.78 3.80 3.57 3.57 3.58 3.61 3.62 3.57 3.64 3.45 3.55 3.65 3.67 3.72 3.64 3.54 3.86 4.30 3.89 3.41 2.93 2.22 2.07 2.16 2.47 2.78 2.81 2.88 3.00 3.35 3.53
3.21 3.54 3.76 3.83 3.79 3.73 3.86 3.95 3.88 3.70 3.60 3.78 4.06 3.99 3.72 3.50 3.38 3.22 3.17 3.37 3.42 3.18 3.31 2.96 3.17 3.41 3.42 3.27 3.57 3.66 3.69 3.71 3.61 2.88 2.37 2.17 2.30 2.54 2.70 2.61 2.74 3.09 3.49
2.88 3.17 3.37 3.62 3.72 3.69 3.79 3.81 3.86 3.68 3.67 3.73 3.75 3.81 3.62 3.42 3.10 2.75 2.81 3.08 3.08 3.01 2.95 2.85 3.09 2.96 2.91 3.03 3.29 3.48 3.55 3.66 3.51 3.30 2.82 2.76 2.70 2.53 2.49 2.52 2.77 2.99 3.28
2.56 2.71 2.80 3.01 3.29 3.49 3.57 3.57 3.67 3.61 3.54 3.49 3.50 3.41 3.19 3.03 2.82 2.50 2.41 2.67 2.85 2.94 2.92 2.90 3.00 2.92 2.99 3.12 3.11 3.15 3.42 3.47 3.46 3.55 3.03 2.86 2.90 2.61 2.49 2.60 2.68 2.93 3.06